This is the latest recevied weather packets stored in our database for station/object IK3ZGB. If no packets are shown the sender has not sent any weather packets the latest 10 day(s).
| Time | Temp. | Humidity | Pressure | Rain* | Wind** | Luminosity | Snow |
|---|---|---|---|---|---|---|---|
| 1777636724 | 20.56° C | 43% | 1027.8 hPa | - | - | - | - |
| 1777636125 | 21.67° C | 44% | 1028 hPa | - | - | - | - |
| 1777635525 | 21.67° C | 44% | 1028 hPa | - | - | - | - |
| 1777634925 | 21.67° C | 43% | 1028.3 hPa | - | - | - | - |
| 1777634325 | 21.67° C | 43% | 1028.1 hPa | - | - | - | - |
| 1777633725 | 21.11° C | 43% | 1028.3 hPa | - | - | - | - |
| 1777633124 | 22.22° C | 43% | 1028.2 hPa | - | - | - | - |
| 1777632524 | 21.67° C | 44% | 1028.4 hPa | - | - | - | - |
| 1777631925 | 21.67° C | 43% | 1028.6 hPa | - | - | - | - |
| 1777631325 | 21.11° C | 42% | 1028.5 hPa | - | - | - | - |
| 1777630724 | 21.67° C | 42% | 1029 hPa | - | - | - | - |
| 1777630125 | 22.22° C | 42% | 1029 hPa | - | - | - | - |
| 1777629526 | 22.22° C | 43% | 1029.2 hPa | - | - | - | - |
| 1777628925 | 22.22° C | 42% | 1029.3 hPa | - | - | - | - |
| 1777628324 | 22.78° C | 43% | 1029.3 hPa | - | - | - | - |
| 1777627725 | 21.11° C | 41% | 1029.1 hPa | - | - | - | - |
| 1777627124 | 22.22° C | 43% | 1029.1 hPa | - | - | - | - |
| 1777626524 | 21.67° C | 42% | 1029.1 hPa | - | - | - | - |
| 1777625925 | 22.22° C | 40% | 1029.2 hPa | - | - | - | - |
| 1777625324 | 23.33° C | 42% | 1029.4 hPa | - | - | - | - |
| 1777624725 | 22.78° C | 42% | 1029.2 hPa | - | - | - | - |
| 1777624125 | 22.78° C | 41% | 1029.3 hPa | - | - | - | - |
| 1777623525 | 22.22° C | 42% | 1029.7 hPa | - | - | - | - |
| 1777622925 | 22.78° C | 41% | 1029.6 hPa | - | - | - | - |
| 1777622324 | 22.22° C | 40% | 1029.7 hPa | - | - | - | - |
* Rain since midnight (hover to see other rain measurements)
** Current wind speed in m/s (hover to see current wind gust speed)